EB1BCG-1 Weather Reports


Display with metric or nautical units.
time (UTC)temp
F
wind
direction
speed
MPH
gust
MPH
rain 1hr
in
rain 24hr
in
rain mn
in
humidity
%
barometer
mb
20260510173100 50 0.0 0.0 0.00 0.22 0.22 92 1010.1
20260510172053 50 0.0 0.0 0.02 0.22 0.22 95 1009.9
20260510171046 50 0.0 0.0 0.02 0.22 0.22 95 1009.7
20260510170042 51 0.0 0.0 0.02 0.22 0.22 99 1009.6
20260510165032 50 0.0 0.0 0.04 0.22 0.22 99 1009.8
20260510164025 50 0.0 0.0 0.06 0.22 0.22 99 1009.9
20260510163020 48 0.0 0.0 0.06 0.22 0.22 90 1010.1
20260510162116 48 0.0 0.0 0.04 0.20 0.20 85 1010.6
20260510161110 50 0.0 0.0 0.04 0.20 0.20 88 1010.1
20260510155100 51 0.0 0.0 0.04 0.33 0.20 78 1009.7
20260510154156 52 0.0 0.0 0.02 0.31 0.18 70 1009.9
20260510153255 53 225 1.0 5.0 0.00 0.30 0.16 64 1009.7
20260510152249 56 248 0.0 2.0 0.00 0.30 0.16 63 1009.7
20260510151241 60 248 0.0 0.0 0.00 0.30 0.16 71 1009.6
20260510150233 59 248 0.0 0.0 0.00 0.30 0.16 84 1009.6
20260510145226 53 248 0.0 7.0 0.00 0.30 0.16 77 1010.1
20260510144220 53 248 0.0 4.0 0.00 0.30 0.16 75 1010.3
20260510143213 54 270 0.0 0.0 0.00 0.30 0.16 85 1010.3
20260510142206 56 293 0.0 4.0 0.00 0.30 0.16 92 1010.3
20260510141200 54 338 1.0 9.0 0.00 0.30 0.16 83 1010.6
20260510140153 51 293 1.0 8.0 0.00 0.30 0.16 89 1010.8
20260510135145 55 270 0.0 7.0 0.00 0.30 0.16 99 1010.7
20260510134140 51 270 0.0 2.0 0.00 0.30 0.16 88 1010.9
20260510133132 50 293 1.0 7.0 0.00 0.30 0.16 84 1011.2
20260510132125 51 315 5.0 11.0 0.08 0.30 0.16 84 1010.9
20260510131120 51 270 0.0 12.0 0.08 0.30 0.16 80 1010.6
20260510130110 51 293 3.0 11.0 0.08 0.30 0.16 93 1010.6
20260510125102 55 270 1.0 14.0 0.08 0.30 0.16 99 1010.5
20260510124054 54 270 0.0 8.0 0.08 0.30 0.16 99 1010.5
20260510123047 48 270 1.0 8.0 0.08 0.30 0.16 97 1011.0
20260510122145 47 293 3.0 23.0 0.04 0.26 0.12 82 1011.4
20260510121244 49 225 8.0 37.0 0.00 0.22 0.08 75 1010.9
20260510120240 51 0.0 0.0 0.00 0.22 0.08 72 1010.2
20260510115231 53 0.0 0.0 0.00 0.22 0.08 65 1010.0
20260510114225 54 0.0 0.0 0.00 0.22 0.08 66 1010.1
20260510113218 55 0.0 0.0 0.00 0.22 0.08 61 1010.0
20260510112212 56 0.0 0.0 0.00 0.22 0.08 59 1010.0
20260510111205 57 0.0 0.0 0.00 0.22 0.08 55 1010.1
20260510110200 57 0.0 0.0 0.00 0.22 0.08 55 1010.2
20260510105152 61 0.0 0.0 0.00 0.22 0.08 56 1010.2
20260510104145 60 0.0 0.0 0.00 0.22 0.08 58 1010.3
20260510103140 57 0.0 0.0 0.00 0.22 0.08 57 1010.7
20260510102133 57 0.0 0.0 0.00 0.22 0.08 54 1010.6
20260510101127 58 0.0 0.0 0.00 0.22 0.08 53 1010.5
20260510100120 62 0.0 0.0 0.00 0.22 0.08 57 1010.3
20260510095112 60 0.0 0.0 0.00 0.22 0.08 64 1010.6
20260510094103 59 0.0 0.0 0.00 0.22 0.08 68 1010.7
20260510093055 55 0.0 0.0 0.00 0.22 0.08 71 1010.9
20260510092048 56 0.0 0.0 0.00 0.22 0.08 73 1010.8
20260510091041 53 0.0 0.0 0.00 0.22 0.08 80 1010.9
20260510090034 54 0.0 0.0 0.00 0.22 0.08 77 1010.9
20260510085028 52 0.0 0.0 0.00 0.22 0.08 81 1011.1
20260510084020 52 0.0 0.0 0.00 0.22 0.08 82 1011.0
20260510083014 52 0.0 0.0 0.00 0.22 0.08 87 1011.3
20260510082008 51 0.0 0.0 0.00 0.22 0.08 96 1011.3
20260510081000 52 0.0 0.0 0.00 0.22 0.08 99 1011.3
20260510075951 50 0.0 0.0 0.00 0.22 0.08 99 1011.4
20260510074944 49 0.0 0.0 0.00 0.22 0.08 99 1011.4
20260510073940 49 0.0 0.0 0.00 0.22 0.08 99 1011.5
20260510072929 48 0.0 0.0 0.00 0.22 0.08 99 1011.4
20260510071922 48 0.0 0.0 0.00 0.22 0.08 99 1011.2
20260510070913 48 0.0 0.0 0.00 0.22 0.08 99 1011.3
20260510065906 47 0.0 0.0 0.02 0.22 0.08 99 1011.2
20260510064900 47 0.0 0.0 0.02 0.22 0.08 99 1011.2
20260510063852 47 0.0 0.0 0.02 0.22 0.08 99 1011.2
20260510062844 47 0.0 0.0 0.02 0.22 0.08 99 1011.0
20260510061840 46 0.0 0.0 0.02 0.22 0.08 99 1011.0
20260510060831 45 0.0 0.0 0.02 0.22 0.08 99 1010.7
20260510055931 45 0.0 0.0 0.00 0.20 0.06 99 1010.7
20260510054924 45 270 1.0 37.0 0.00 0.20 0.06 99 1010.7
20260510053920 45 270 0.0 0.0 0.00 0.20 0.06 99 1010.7
20260510052910 44 270 0.0 0.0 0.00 0.20 0.06 99 1010.6
20260510051903 44 270 0.0 0.0 0.00 0.20 0.06 99 1010.6
20260510050900 44 270 0.0 0.0 0.00 0.20 0.06 99 1010.5
20260510045849 44 270 0.0 0.0 0.00 0.20 0.06 99 1010.7
20260510044842 44 270 0.0 0.0 0.00 0.20 0.06 99 1010.7
20260510043835 43 270 0.0 0.0 0.00 0.20 0.06 99 1010.7
20260510042828 43 270 0.0 0.0 0.00 0.20 0.06 99 1010.7
20260510041820 42 270 0.0 0.0 0.00 0.20 0.06 99 1010.7
20260510040813 43 270 0.0 0.0 0.00 0.20 0.06 99 1010.8
20260510035806 42 270 0.0 0.0 0.00 0.20 0.06 99 1010.8
20260510034800 42 270 0.0 0.0 0.00 0.20 0.06 99 1010.7
20260510033751 41 270 0.0 0.0 0.00 0.20 0.06 99 1010.8
20260510032745 42 270 0.0 0.0 0.00 0.20 0.06 99 1010.7
20260510031825 42 270 0.0 0.0 0.00 0.20 0.06 99 1010.8
20260510031740 42 270 0.0 0.0 0.00 0.20 0.06 99 1010.8
20260510030730 42 270 0.0 0.0 0.00 0.20 0.06 99 1010.8
20260510025723 43 270 0.0 0.0 0.00 0.20 0.06 99 1011.0
20260510024716 43 270 0.0 0.0 0.00 0.20 0.06 99 1011.0
20260510023723 43 270 0.0 0.0 0.00 0.20 0.06 99 1011.1
20260510023710 43 270 0.0 0.0 0.00 0.20 0.06 99 1011.0
20260510022703 43 270 0.0 0.0 0.00 0.20 0.06 99 1011.1
20260510021656 43 270 0.0 0.0 0.00 0.20 0.06 99 1011.0
20260510020649 43 270 0.0 0.0 0.00 0.20 0.06 99 1010.9
20260510015642 44 270 0.0 0.0 0.00 0.20 0.06 99 1010.9
20260510014635 44 270 0.0 0.0 0.00 0.20 0.06 99 1011.0
20260510013630 44 270 0.0 0.0 0.00 0.20 0.06 99 1010.9
20260510012624 44 270 0.0 0.0 0.00 0.20 0.06 99 1011.1
20260510011613 44 270 0.0 0.0 0.00 0.20 0.06 99 1011.2
20260510010606 44 270 0.0 0.0 0.00 0.20 0.06 99 1011.3
20260510005600 44 270 0.0 0.0 0.00 0.20 0.06 99 1011.3
20260510004552 44 270 0.0 0.0 0.00 0.20 0.06 99 1011.4
20260510003546 45 270 0.0 0.0 0.00 0.20 0.06 99 1011.3
20260510002540 45 270 0.0 0.0 0.00 0.20 0.06 99 1011.3
20260510001533 46 270 0.0 0.0 0.02 0.20 0.06 99 1011.2
20260510000526 46 270 0.0 0.0 0.04 0.20 0.06 99 1011.0
20260509235520 47 270 0.0 8.0 0.06 0.20 0.06 99 1011.3
20260509234512 47 270 1.0 13.0 0.06 0.20 0.06 99 1011.5
20260509233505 47 338 0.0 0.0 0.06 0.20 0.06 99 1011.6
20260509232502 47 338 0.0 0.0 0.06 0.20 0.06 99 1011.4
20260509231600 47 338 0.0 4.0 0.04 0.18 0.04 99 1011.4
20260509230551 47 338 2.0 9.0 0.04 0.18 0.04 99 1011.3
20260509225651 48 0.0 0.0 0.02 0.16 0.02 99 1011.5
20260509224750 48 0.0 0.0 0.00 0.14 0.00 99 1011.1
20260509223743 48 0.0 0.0 0.00 0.14 0.00 99 1011.0
20260509222740 48 0.0 0.0 0.00 0.14 0.00 99 1011.1
20260509221732 48 0.0 0.0 0.00 0.14 0.00 99 1011.1
20260509220722 48 0.0 0.0 0.00 0.14 0.00 99 1011.1
20260509215715 48 0.0 0.0 0.00 0.14 0.14 99 1011.0
20260509214708 48 0.0 0.0 0.00 0.14 0.14 99 1010.9
20260509213701 48 0.0 0.0 0.00 0.14 0.14 99 1010.9
20260509212655 49 0.0 0.0 0.00 0.14 0.14 99 1011.0
20260509211649 49 0.0 0.0 0.00 0.14 0.14 99 1011.0
20260509210642 49 0.0 0.0 0.00 0.14 0.14 99 1010.9
20260509205635 49 0.0 0.0 0.00 0.14 0.14 99 1010.9
20260509204628 49 0.0 0.0 0.00 0.14 0.14 99 1010.8
20260509203622 49 0.0 0.0 0.00 0.14 0.14 99 1010.8
20260509202614 50 0.0 0.0 0.00 0.14 0.14 99 1010.8
20260509201607 50 0.0 0.0 0.00 0.14 0.14 99 1010.7
20260509200600 50 0.0 0.0 0.00 0.14 0.14 99 1010.6
20260509195553 50 0.0 0.0 0.00 0.14 0.14 99 1010.5
20260509194546 51 0.0 0.0 0.00 0.14 0.14 99 1010.3
20260509193540 51 0.0 0.0 0.00 0.14 0.14 99 1010.4
20260509192533 51 0.0 0.0 0.00 0.14 0.14 99 1010.4
20260509191527 51 0.0 0.0 0.00 0.14 0.14 99 1010.1
20260509190520 51 338 0.0 0.0 0.00 0.14 0.14 99 1010.1
20260509185513 51 0.0 0.0 0.00 0.14 0.14 99 1010.2
20260509184506 51 0.0 0.0 0.00 0.14 0.14 99 1009.9
20260509183501 52 0.0 0.0 0.00 0.14 0.14 99 1009.8
20260509182451 52 0.0 0.0 0.00 0.14 0.14 99 1009.6
20260509181445 51 0.0 0.0 0.00 0.14 0.14 99 1009.6
20260509180441 52 0.0 0.0 0.00 0.14 0.14 99 1009.4
20260509175431 52 0.0 0.0 0.00 0.14 0.14 99 1009.3
20260509174425 52 0.0 0.0 0.00 0.14 0.14 96 1009.3
20260509173419 52 0.0 0.0 0.00 0.14 0.14 95 1009.0